Radiation Dose at Monitoring Post of Fukushima Daini Nuclear Power Station
Date,Time,MP-1(microSv/h),MP-2(microSv/h),MP-3(microSv/h),MP-4(microSv/h),MP-5(microSv/h),MP-6(microSv/h),MP-7(microSv/h),Wind Direction,Wind Velocity(m/s),Rain
2020/06/02,00:00,0.176,0.161,0.265,0.253,0.248,0.138,0.084,south,7.4,No
2020/06/02,00:10,0.174,0.160,0.267,0.253,0.250,0.139,0.083,south,6.1,No
2020/06/02,00:20,0.174,0.161,0.266,0.254,0.247,0.138,0.083,south,7.7,No
2020/06/02,00:30,0.176,0.161,0.267,0.255,0.248,0.140,0.084,south,8.1,No
2020/06/02,00:40,0.174,0.161,0.267,0.252,0.247,0.138,0.084,south,8.1,No
2020/06/02,00:50,0.175,0.162,0.266,0.254,0.248,0.138,0.084,south,7.4,No
2020/06/02,01:00,0.174,0.160,0.267,0.252,0.250,0.139,0.084,south,7.2,No
2020/06/02,01:10,0.176,0.161,0.266,0.254,0.249,0.138,0.084,south-southwest,8.1,No
2020/06/02,01:20,0.174,0.160,0.267,0.253,0.251,0.140,0.084,south-southwest,6.4,No
2020/06/02,01:30,0.174,0.161,0.266,0.254,0.247,0.139,0.084,south-southwest,6.7,No
2020/06/02,01:40,0.176,0.160,0.268,0.253,0.250,0.139,0.083,south-southwest,6.3,No
2020/06/02,01:50,0.174,0.161,0.265,0.252,0.248,0.139,0.084,south-southwest,6.4,No
2020/06/02,02:00,0.175,0.160,0.267,0.255,0.249,0.138,0.084,south,7.0,No
2020/06/02,02:10,0.174,0.161,0.266,0.252,0.250,0.139,0.083,south,6.6,No
2020/06/02,02:20,0.175,0.160,0.266,0.253,0.248,0.139,0.084,south,5.7,No
2020/06/02,02:30,0.176,0.161,0.267,0.252,0.249,0.138,0.083,south,7.3,No
2020/06/02,02:40,0.175,0.160,0.265,0.253,0.246,0.139,0.084,south,8.2,No
2020/06/02,02:50,0.175,0.160,0.267,0.254,0.249,0.138,0.084,south,6.9,Yes
2020/06/02,03:00,0.174,0.162,0.265,0.252,0.249,0.140,0.084,south,6.2,No
2020/06/02,03:10,0.175,0.160,0.268,0.253,0.248,0.138,0.084,south,7.2,No
2020/06/02,03:20,0.174,0.161,0.267,0.253,0.248,0.138,0.084,south,7.0,No
2020/06/02,03:30,0.175,0.160,0.265,0.254,0.248,0.139,0.084,south,7.7,No
2020/06/02,03:40,0.174,0.160,0.267,0.252,0.250,0.138,0.084,south,7.8,No
2020/06/02,03:50,0.174,0.160,0.266,0.254,0.248,0.139,0.084,south,8.3,No
2020/06/02,04:00,0.175,0.161,0.268,0.252,0.249,0.138,0.083,south,9.3,No
2020/06/02,04:10,0.175,0.161,0.264,0.253,0.247,0.139,0.084,south,7.5,No
2020/06/02,04:20,0.175,0.161,0.267,0.254,0.250,0.139,0.084,south,6.7,No
2020/06/02,04:30,0.174,0.160,0.265,0.254,0.249,0.138,0.085,south,7.8,No
2020/06/02,04:40,0.175,0.161,0.267,0.253,0.250,0.140,0.083,south,8.7,No
2020/06/02,04:50,0.174,0.160,0.266,0.254,0.248,0.138,0.084,south,7.0,No
2020/06/02,05:00,0.175,0.162,0.269,0.253,0.249,0.139,0.084,south,6.0,No
2020/06/02,05:10,0.175,0.160,0.265,0.253,0.250,0.138,0.084,south,5.0,No
2020/06/02,05:20,0.176,0.160,0.267,0.253,0.248,0.138,0.083,south,5.8,No
2020/06/02,05:30,0.176,0.161,0.266,0.252,0.250,0.139,0.084,south,4.8,No
2020/06/02,05:40,0.174,0.159,0.266,0.254,0.249,0.138,0.084,south,3.8,No
2020/06/02,05:50,0.175,0.161,0.267,0.253,0.247,0.139,0.084,south,2.4,No
2020/06/02,06:00,0.174,0.160,0.265,0.254,0.251,0.138,0.085,south-southwest,4.3,No
2020/06/02,06:10,0.176,0.160,0.266,0.252,0.246,0.138,0.084,south,5.2,No
2020/06/02,06:20,0.174,0.161,0.264,0.252,0.247,0.137,0.083,south,5.8,No
2020/06/02,06:30,0.174,0.161,0.266,0.255,0.250,0.138,0.084,south,5.3,No
2020/06/02,06:40,0.175,0.160,0.266,0.252,0.247,0.139,0.084,south,4.3,No
2020/06/02,06:50,0.174,0.161,0.264,0.253,0.250,0.139,0.084,south,4.6,No
2020/06/02,07:00,0.176,0.159,0.267,0.254,0.250,0.138,0.084,south,3.4,No
2020/06/02,07:10,0.175,0.160,0.267,0.251,0.246,0.138,0.084,south,3.0,No
2020/06/02,07:20,0.175,0.161,0.263,0.251,0.249,0.138,0.084,south,4.9,No
2020/06/02,07:30,0.175,0.160,0.264,0.255,0.250,0.139,0.084,south,5.4,No
2020/06/02,07:40,0.174,0.160,0.263,0.253,0.248,0.138,0.083,south,5.7,No
2020/06/02,07:50,0.173,0.160,0.263,0.253,0.246,0.138,0.083,south,5.8,No
2020/06/02,08:00,0.173,0.159,0.264,0.251,0.245,0.139,0.084,south,4.9,No
2020/06/02,08:10,0.177,0.159,0.264,0.251,0.248,0.139,0.084,south,5.4,No
2020/06/02,08:20,0.174,0.162,0.265,0.252,0.250,0.139,0.084,south,4.1,No
2020/06/02,08:30,0.174,0.161,0.267,0.256,0.249,0.139,0.083,south-southwest,4.9,No
2020/06/02,08:40,0.177,0.160,0.268,0.254,0.248,0.138,0.084,south-southwest,4.1,No
2020/06/02,08:50,0.175,0.162,0.266,0.251,0.251,0.139,0.085,south-southwest,3.4,No
2020/06/02,09:00,0.173,0.161,0.264,0.255,0.250,0.139,0.084,south-southwest,1.6,No
2020/06/02,09:10,0.176,0.159,0.268,0.255,0.248,0.138,0.084,southwest,2.2,No
2020/06/02,09:20,0.177,0.161,0.268,0.254,0.246,0.140,0.084,south-southeast,1.2,No
2020/06/02,09:30,0.176,0.161,0.267,0.252,0.246,0.140,0.085,southeast,1.4,No
2020/06/02,09:40,0.173,0.162,0.266,0.252,0.246,0.139,0.084,south-southeast,3.7,No
2020/06/02,09:50,0.173,0.160,0.265,0.252,0.246,0.138,0.084,south-southeast,4.1,No
2020/06/02,10:00,0.174,0.160,0.265,0.253,0.246,0.139,0.084,south-southeast,5.4,No
2020/06/02,10:10,0.173,0.160,0.266,0.252,0.246,0.138,0.084,south-southeast,6.5,No
2020/06/02,10:20,0.174,0.161,0.266,0.251,0.247,0.139,0.083,south-southeast,7.4,No
2020/06/02,10:30,0.173,0.160,0.265,0.251,0.247,0.138,0.083,south-southeast,8.1,No
2020/06/02,10:40,0.173,0.159,0.267,0.253,0.249,0.139,0.084,south-southeast,8.4,No
2020/06/02,10:50,0.174,0.160,0.266,0.253,0.249,0.139,0.085,south-southeast,9.6,No
2020/06/02,11:00,0.173,0.159,0.266,0.252,0.247,0.140,0.084,southeast,7.7,No
2020/06/02,11:10,0.176,0.159,0.265,0.251,0.249,0.140,0.084,south-southeast,8.9,No
2020/06/02,11:20,0.177,0.159,0.265,0.252,0.247,0.139,0.084,south-southeast,8.9,No
2020/06/02,11:30,0.176,0.160,0.265,0.252,0.250,0.139,0.083,south-southeast,9.8,No
2020/06/02,11:40,0.175,0.161,0.265,0.253,0.252,0.139,0.084,south-southeast,10.1,No
2020/06/02,11:50,0.174,0.162,0.266,0.253,0.251,0.139,0.084,south-southeast,10.1,No
2020/06/02,12:00,0.173,0.161,0.266,0.256,0.251,0.139,0.085,south-southeast,9.2,No
2020/06/02,12:10,0.174,0.160,0.266,0.256,0.249,0.140,0.084,south-southeast,10.9,No
2020/06/02,12:20,0.174,0.159,0.265,0.255,0.248,0.139,0.084,south-southeast,10.1,No
2020/06/02,12:30,0.174,0.160,0.266,0.253,0.246,0.139,0.083,south-southeast,10.1,No
2020/06/02,12:40,0.176,0.161,0.266,0.253,0.248,0.139,0.084,south-southeast,11.2,No
2020/06/02,12:50,0.177,0.161,0.266,0.252,0.247,0.139,0.084,south-southeast,12.5,No
2020/06/02,13:00,0.175,0.161,0.266,0.252,0.247,0.139,0.084,south-southeast,12.6,No
2020/06/02,13:10,0.175,0.160,0.265,0.251,0.246,0.140,0.084,south-southeast,10.7,No
2020/06/02,13:20,0.175,0.161,0.266,0.255,0.250,0.139,0.084,south-southeast,11.5,No
2020/06/02,13:30,0.174,0.159,0.271,0.257,0.252,0.138,0.084,south-southeast,10.9,No
2020/06/02,13:40,0.174,0.160,0.271,0.255,0.252,0.139,0.085,south,11.5,No
2020/06/02,13:50,0.174,0.161,0.267,0.252,0.249,0.139,0.084,south-southeast,10.9,No
2020/06/02,14:00,0.174,0.161,0.266,0.254,0.246,0.139,0.085,south-southeast,10.1,No
2020/06/02,14:10,0.173,0.162,0.266,0.252,0.246,0.139,0.084,south-southeast,10.4,No
2020/06/02,14:20,0.174,0.160,0.266,0.256,0.248,0.139,0.085,south,11.2,No
2020/06/02,14:30,0.173,0.160,0.265,0.255,0.251,0.139,0.084,south-southeast,11.2,No
2020/06/02,14:40,0.174,0.159,0.267,0.254,0.250,0.139,0.084,south-southeast,11.5,No
2020/06/02,14:50,0.176,0.158,0.265,0.252,0.250,0.139,0.084,south-southeast,10.4,No
2020/06/02,15:00,0.177,0.160,0.266,0.253,0.249,0.138,0.083,south,10.6,No
2020/06/02,15:10,0.175,0.159,0.266,0.253,0.247,0.139,0.084,south-southeast,10.6,No
2020/06/02,15:20,0.175,0.161,0.265,0.252,0.248,0.139,0.085,south,10.9,No
2020/06/02,15:30,0.174,0.162,0.268,0.253,0.247,0.140,0.083,south-southeast,9.8,No
2020/06/02,15:40,0.174,0.161,0.271,0.257,0.247,0.140,0.084,south-southeast,9.8,No
2020/06/02,15:50,0.177,0.160,0.268,0.256,0.247,0.139,0.084,south-southeast,10.0,No
2020/06/02,16:00,0.177,0.162,0.266,0.254,0.249,0.138,0.084,south-southeast,9.0,No
2020/06/02,16:10,0.176,0.162,0.270,0.254,0.252,0.139,0.084,south-southeast,7.3,No
2020/06/02,16:20,0.174,0.161,0.269,0.256,0.251,0.140,0.084,south-southeast,7.4,No
2020/06/02,16:30,0.174,0.161,0.267,0.255,0.249,0.140,0.084,south-southeast,9.0,No
2020/06/02,16:40,0.174,0.162,0.266,0.253,0.249,0.139,0.083,south-southeast,9.6,No
2020/06/02,16:50,0.177,0.160,0.270,0.256,0.248,0.139,0.084,south-southeast,9.2,No
2020/06/02,17:00,0.177,0.161,0.267,0.254,0.248,0.139,0.084,south,8.3,No
2020/06/02,17:10,0.175,0.162,0.268,0.255,0.251,0.140,0.083,south-southeast,7.5,No
2020/06/02,17:20,0.176,0.162,0.270,0.256,0.251,0.138,0.084,south-southeast,7.1,No
2020/06/02,17:30,0.176,0.161,0.266,0.255,0.249,0.139,0.084,south-southeast,7.3,No
2020/06/02,17:40,0.175,0.160,0.269,0.256,0.251,0.139,0.085,south-southeast,8.7,No
2020/06/02,17:50,0.177,0.160,0.268,0.256,0.249,0.139,0.084,south-southeast,6.5,No
2020/06/02,18:00,0.176,0.161,0.266,0.254,0.249,0.140,0.084,south-southeast,9.0,No
2020/06/02,18:10,0.175,0.161,0.269,0.257,0.251,0.138,0.084,south-southeast,9.5,No
2020/06/02,18:20,0.176,0.161,0.268,0.255,0.248,0.139,0.084,south-southeast,8.4,No
2020/06/02,18:30,0.176,0.160,0.269,0.255,0.250,0.140,0.085,south,7.4,No
2020/06/02,18:40,0.177,0.161,0.268,0.256,0.250,0.138,0.085,south-southeast,8.2,No
2020/06/02,18:50,0.176,0.161,0.268,0.254,0.249,0.140,0.084,south,7.9,No
2020/06/02,19:00,0.176,0.161,0.269,0.257,0.251,0.140,0.084,south-southeast,8.1,No
2020/06/02,19:10,0.176,0.161,0.266,0.255,0.248,0.139,0.084,south-southeast,7.0,No
2020/06/02,19:20,0.174,0.160,0.269,0.256,0.250,0.139,0.084,south,7.5,No
2020/06/02,19:30,0.176,0.161,0.268,0.255,0.250,0.139,0.085,south-southeast,7.4,No
2020/06/02,19:40,0.176,0.160,0.269,0.255,0.248,0.139,0.085,south,7.2,No
2020/06/02,19:50,0.174,0.161,0.269,0.257,0.252,0.139,0.084,south,7.2,No
2020/06/02,20:00,0.176,0.160,0.267,0.255,0.249,0.140,0.084,south,6.9,No
2020/06/02,20:10,0.175,0.161,0.270,0.257,0.251,0.141,0.084,south,6.8,No
2020/06/02,20:20,0.177,0.161,0.268,0.255,0.249,0.138,0.084,south,7.3,No
2020/06/02,20:30,0.175,0.161,0.268,0.255,0.248,0.139,0.084,south-southeast,6.5,No
2020/06/02,20:40,0.174,0.162,0.268,0.254,0.252,0.139,0.085,south-southeast,6.8,No
2020/06/02,20:50,0.176,0.161,0.266,0.253,0.248,0.138,0.085,south,6.7,No
2020/06/02,21:00,0.175,0.162,0.269,0.256,0.251,0.140,0.084,south,6.9,No
2020/06/02,21:10,0.176,0.161,0.266,0.253,0.251,0.139,0.085,south-southeast,7.0,No
2020/06/02,21:20,0.175,0.162,0.269,0.256,0.247,0.139,0.085,south,6.8,No
2020/06/02,21:30,0.175,0.161,0.267,0.256,0.252,0.139,0.084,south,4.4,No
2020/06/02,21:40,0.177,0.161,0.266,0.255,0.249,0.139,0.085,south,5.0,Yes
2020/06/02,21:50,0.175,0.161,0.270,0.256,0.249,0.138,0.083,south,4.5,No
2020/06/02,22:00,0.176,0.161,0.267,0.255,0.252,0.139,0.084,south,3.3,No
2020/06/02,22:10,0.176,0.162,0.271,0.256,0.248,0.138,0.084,south,3.3,Yes
2020/06/02,22:20,0.175,0.161,0.268,0.255,0.251,0.140,0.085,south-southwest,2.7,Yes
2020/06/02,22:30,0.177,0.163,0.269,0.255,0.249,0.139,0.085,south,4.8,No
2020/06/02,22:40,0.176,0.162,0.270,0.256,0.249,0.140,0.084,south,3.7,Yes
2020/06/02,22:50,0.177,0.162,0.266,0.255,0.251,0.140,0.085,south,3.7,No
2020/06/02,23:00,0.176,0.163,0.268,0.257,0.248,0.139,0.085,south-southwest,2.9,No
2020/06/02,23:10,0.174,0.162,0.266,0.254,0.250,0.140,0.084,southwest,3.4,Yes
2020/06/02,23:20,0.181,0.167,0.269,0.258,0.252,0.142,0.088,southwest,4.7,Yes
2020/06/02,23:30,0.183,0.168,0.269,0.256,0.253,0.146,0.091,west,3.5,Yes
2020/06/02,23:40,0.185,0.173,0.270,0.259,0.256,0.149,0.094,west-northwest,1.5,Yes
2020/06/02,23:50,0.187,0.174,0.272,0.260,0.256,0.150,0.095,west,4.4,Yes
